QPF
0.00 0.00 0.00 0.00 0.00 0.00 0.00 0.00 0.00 0.00 0.00 0.00 0.00 0.00 0.00 0.00 0.00 0.00 0.00 0.00 0.00 0.00 0.00 0.00 0.00 0.00 0.00 0.00 0.00 0.00 0.00 0.00 0.00 0.00 0.00 0.00 0.00 0.00 0.00 0.00 0.00 0.00 0.01
0.00 0.00 0.00 0.00 0.00 0.00 0.00 0.00 0.00 0.00 0.00 0.00 0.00 0.00 0.00 0.00 0.00 0.00 0.00 0.00 0.00 0.00 0.00 0.00 0.00 0.00 0.00 0.00 0.00 0.00 0.00 0.00 0.00 0.00 0.00 0.00 0.00 0.00 0.00 0.00 0.00 0.00 0.00
0.00 0.00 0.00 0.00 0.00 0.00 0.00 0.00 0.00 0.00 0.00 0.00 0.00 0.00 0.00 0.00 0.00 0.00 0.00 0.00 0.00 0.00 0.00 0.00 0.00 0.00 0.00 0.00 0.00 0.00 0.00 0.00 0.00 0.00 0.00 0.00 0.00 0.00 0.00 0.00 0.00 0.00 0.00
0.00 0.00 0.00 0.00 0.00 0.00 0.00 0.00 0.00 0.00 0.00 0.00 0.00 0.00 0.00 0.00 0.00 0.00 0.00 0.00 0.00 0.00 0.00 0.00 0.00 0.00 0.00 0.00 0.00 0.00 0.00 0.00 0.00 0.00 0.00 0.00 0.00 0.00 0.00 0.00 0.00 0.00 0.00
0.00 0.00 0.00 0.00 0.00 0.00 0.00 0.00 0.00 0.00 0.00 0.00 0.00 0.00 0.00 0.00 0.00 0.00 0.00 0.00 0.00 0.00 0.00 0.00 0.00 0.00 0.00 0.00 0.00 0.00 0.00 0.00 0.00 0.00 0.00 0.00 0.00 0.00 0.00 0.00 0.00 0.00 0.00
0.00 0.00 0.00 0.00 0.00 0.00 0.00 0.00 0.00 0.00 0.00 0.00 0.00 0.00 0.00 0.00 0.00 0.00 0.00 0.00 0.00 0.00 0.00 0.00 0.00 0.00 0.00 0.00 0.00 0.00 0.00 0.00 0.00 0.00 0.00 0.00 0.00 0.00 0.00 0.00 0.00 0.00 0.01
0.00 0.00 0.00 0.00 0.00 0.00 0.00 0.00 0.00 0.00 0.00 0.00 0.00 0.00 0.00 0.00 0.00 0.00 0.00 0.00 0.00 0.00 0.00 0.00 0.00 0.00 0.00 0.00 0.00 0.00 0.00 0.00 0.00 0.00 0.00 0.00 0.00 0.00 0.00 0.00 0.01 0.01 0.01
0.00 0.00 0.00 0.00 0.00 0.00 0.00 0.00 0.00 0.00 0.00 0.00 0.00 0.00 0.00 0.00 0.00 0.00 0.00 0.00 0.00 0.00 0.00 0.00 0.00 0.00 0.00 0.00 0.00 0.00 0.00 0.00 0.00 0.00 0.00 0.00 0.00 0.00 0.00 0.01 0.01 0.01 0.01
0.00 0.00 0.00 0.00 0.00 0.00 0.00 0.00 0.00 0.00 0.00 0.00 0.00 0.00 0.00 0.00 0.00 0.00 0.00 0.00 0.00 0.00 0.00 0.00 0.00 0.00 0.00 0.00 0.00 0.00 0.00 0.00 0.00 0.00 0.00 0.00 0.00 0.00 0.00 0.01 0.01 0.01 0.01
0.00 0.00 0.00 0.00 0.00 0.00 0.00 0.00 0.00 0.00 0.00 0.00 0.00 0.00 0.00 0.00 0.00 0.00 0.00 0.00 0.00 0.00 0.00 0.00 0.00 0.00 0.00 0.00 0.00 0.00 0.00 0.00 0.00 0.00 0.00 0.00 0.00 0.00 0.00 0.01 0.01 0.01 0.02
0.00 0.00 0.00 0.00 0.00 0.00 0.00 0.00 0.00 0.00 0.00 0.00 0.00 0.00 0.00 0.00 0.00 0.00 0.00 0.00 0.00 0.00 0.00 0.00 0.00 0.00 0.00 0.00 0.00 0.00 0.00 0.00 0.00 0.00 0.00 0.00 0.00 0.00 0.00 0.01 0.01 0.01 0.02
0.00 0.00 0.00 0.00 0.00 0.00 0.00 0.00 0.00 0.00 0.00 0.00 0.00 0.00 0.00 0.00 0.00 0.00 0.00 0.00 0.00 0.00 0.00 0.00 0.00 0.00 0.00 0.00 0.00 0.00 0.00 0.00 0.00 0.00 0.00 0.00 0.00 0.00 0.00 0.00 0.01 0.01 0.02
0.00 0.00 0.00 0.00 0.00 0.00 0.00 0.00 0.00 0.00 0.00 0.00 0.00 0.00 0.00 0.00 0.00 0.00 0.00 0.00 0.00 0.00 0.00 0.00 0.00 0.00 0.00 0.00 0.00 0.00 0.00 0.00 0.00 0.00 0.00 0.00 0.00 0.00 0.00 0.00 0.01 0.01 0.01
0.00 0.00 0.00 0.00 0.00 0.00 0.00 0.00 0.00 0.00 0.00 0.00 0.00 0.00 0.00 0.00 0.00 0.00 0.00 0.00 0.00 0.00 0.00 0.00 0.00 0.00 0.00 0.00 0.00 0.00 0.00 0.00 0.00 0.00 0.00 0.00 0.00 0.00 0.00 0.01 0.01 0.01 0.01
0.00 0.00 0.00 0.00 0.00 0.00 0.00 0.00 0.00 0.00 0.00 0.00 0.00 0.00 0.00 0.00 0.00 0.00 0.01 0.01 0.00 0.00 0.00 0.00 0.00 0.00 0.00 0.00 0.00 0.00 0.00 0.00 0.00 0.00 0.00 0.00 0.00 0.00 0.00 0.01 0.01 0.01 0.01
0.00 0.00 0.00 0.00 0.00 0.00 0.00 0.00 0.00 0.00 0.00 0.00 0.00 0.00 0.00 0.01 0.01 0.01 0.01 0.01 0.01 0.01 0.01 0.00 0.00 0.00 0.00 0.00 0.00 0.00 0.00 0.00 0.00 0.00 0.00 0.00 0.00 0.00 0.01 0.01 0.01 0.01 0.01
0.00 0.00 0.00 0.00 0.00 0.00 0.00 0.00 0.00 0.00 0.01 0.01 0.01 0.01 0.01 0.01 0.02 0.02 0.02 0.01 0.02 0.02 0.02 0.01 0.00 0.00 0.00 0.00 0.00 0.00 0.00 0.00 0.00 0.00 0.00 0.00 0.00 0.00 0.00 0.01 0.01 0.01 0.01
0.01 0.00 0.00 0.00 0.00 0.00 0.00 0.01 0.01 0.01 0.01 0.01 0.01 0.02 0.01 0.01 0.01 0.01 0.01 0.02 0.02 0.02 0.01 0.01 0.01 0.00 0.00 0.00 0.00 0.00 0.00 0.00 0.00 0.00 0.00 0.00 0.00 0.00 0.01 0.01 0.01 0.01 0.01
0.01 0.01 0.01 0.00 0.00 0.00 0.00 0.01 0.01 0.01 0.01 0.01 0.01 0.01 0.01 0.01 0.01 0.02 0.02 0.02 0.02 0.02 0.01 0.01 0.01 0.01 0.01 0.01 0.01 0.01 0.00 0.00 0.00 0.00 0.00 0.00 0.00 0.00 0.00 0.00 0.00 0.01 0.01
0.01 0.01 0.01 0.01 0.00 0.00 0.00 0.01 0.01 0.01 0.01 0.01 0.01 0.01 0.02 0.02 0.03 0.04 0.04 0.03 0.02 0.02 0.02 0.02 0.02 0.01 0.01 0.01 0.01 0.01 0.00 0.00 0.00 0.00 0.00 0.00 0.00 0.00 0.00 0.00 0.00 0.01 0.01
0.01 0.01 0.01 0.01 0.01 0.01 0.01 0.01 0.01 0.01 0.01 0.01 0.01 0.01 0.02 0.04 0.05 0.04 0.03 0.03 0.02 0.02 0.02 0.02 0.02 0.02 0.02 0.01 0.01 0.01 0.01 0.00 0.00 0.00 0.00 0.00 0.00 0.00 0.00 0.00 0.00 0.00 0.01
0.01 0.01 0.01 0.01 0.01 0.01 0.01 0.01 0.01 0.01 0.01 0.01 0.01 0.01 0.02 0.03 0.03 0.03 0.02 0.02 0.01 0.01 0.01 0.01 0.01 0.01 0.01 0.01 0.01 0.01 0.01 0.01 0.00 0.00 0.00 0.00 0.00 0.00 0.00 0.00 0.00 0.01 0.01
0.01 0.01 0.01 0.01 0.01 0.01 0.01 0.01 0.01 0.01 0.01 0.01 0.02 0.02 0.02 0.02 0.02 0.01 0.02 0.02 0.02 0.01 0.01 0.01 0.01 0.01 0.01 0.01 0.01 0.01 0.01 0.01 0.00 0.00 0.00 0.00 0.00 0.00 0.00 0.00 0.00 0.01 0.01
0.02 0.01 0.01 0.01 0.01 0.01 0.01 0.01 0.01 0.01 0.01 0.01 0.02 0.02 0.02 0.02 0.01 0.01 0.01 0.01 0.01 0.01 0.01 0.01 0.01 0.01 0.01 0.01 0.01 0.01 0.01 0.00 0.00 0.00 0.00 0.00 0.00 0.00 0.00 0.00 0.00 0.00 0.00
0.02 0.01 0.01 0.01 0.01 0.01 0.02 0.01 0.01 0.01 0.01 0.01 0.01 0.01 0.01 0.01 0.02 0.01 0.01 0.01 0.01 0.01 0.01 0.01 0.01 0.01 0.01 0.01 0.01 0.00 0.00 0.01 0.01 0.00 0.00 0.01 0.01 0.00 0.00 0.00 0.00 0.00 0.00
0.02 0.01 0.01 0.01 0.01 0.01 0.02 0.01 0.01 0.01 0.02 0.02 0.01 0.01 0.01 0.01 0.01 0.01 0.01 0.01 0.01 0.00 0.00 0.00 0.01 0.01 0.01 0.00 0.00 0.01 0.01 0.01 0.01 0.02 0.01 0.01 0.01 0.01 0.01 0.00 0.00 0.00 0.00
MSLP
1015.79 1016.30 1016.75 1017.13 1017.45 1017.74 1018.00 1018.26 1018.52 1018.78 1019.06 1019.33 1019.59 1019.82 1020.00 1020.12 1020.16 1020.14 1020.08 1020.01 1019.94 1019.91 1019.93 1020.01 1020.15 1020.31 1020.48 1020.63 1020.74 1020.79 1020.80 1020.76 1020.70 1020.63 1020.56 1020.49 1020.42 1020.34 1020.24 1020.11 1019.95 1019.75 1019.53
1015.71 1016.25 1016.73 1017.16 1017.53 1017.86 1018.16 1018.43 1018.70 1018.97 1019.24 1019.51 1019.77 1019.99 1020.17 1020.29 1020.34 1020.33 1020.28 1020.22 1020.17 1020.16 1020.19 1020.29 1020.42 1020.58 1020.74 1020.88 1020.97 1021.01 1021.00 1020.95 1020.89 1020.83 1020.76 1020.70 1020.64 1020.57 1020.47 1020.34 1020.18 1019.99 1019.78
1015.56 1016.12 1016.64 1017.13 1017.56 1017.95 1018.29 1018.60 1018.88 1019.16 1019.43 1019.69 1019.94 1020.17 1020.35 1020.48 1020.55 1020.56 1020.54 1020.50 1020.47 1020.48 1020.52 1020.61 1020.74 1020.88 1021.01 1021.12 1021.18 1021.20 1021.18 1021.12 1021.06 1020.99 1020.93 1020.87 1020.81 1020.74 1020.65 1020.53 1020.37 1020.20 1020.01
1015.35 1015.94 1016.51 1017.05 1017.56 1018.00 1018.39 1018.74 1019.04 1019.32 1019.59 1019.85 1020.11 1020.34 1020.54 1020.69 1020.79 1020.84 1020.85 1020.84 1020.84 1020.85 1020.89 1020.97 1021.07 1021.19 1021.29 1021.36 1021.40 1021.39 1021.34 1021.28 1021.20 1021.13 1021.06 1021.00 1020.94 1020.86 1020.77 1020.66 1020.52 1020.36 1020.21
1015.11 1015.72 1016.35 1016.95 1017.51 1018.02 1018.45 1018.83 1019.15 1019.45 1019.72 1019.98 1020.25 1020.50 1020.72 1020.91 1021.05 1021.14 1021.19 1021.21 1021.22 1021.24 1021.27 1021.33 1021.40 1021.48 1021.54 1021.58 1021.58 1021.55 1021.49 1021.41 1021.32 1021.24 1021.16 1021.09 1021.02 1020.94 1020.85 1020.74 1020.61 1020.48 1020.34
1014.83 1015.48 1016.14 1016.79 1017.41 1017.96 1018.43 1018.84 1019.18 1019.49 1019.77 1020.05 1020.34 1020.62 1020.88 1021.11 1021.30 1021.43 1021.52 1021.56 1021.58 1021.60 1021.61 1021.64 1021.68 1021.72 1021.74 1021.74 1021.72 1021.67 1021.59 1021.50 1021.41 1021.32 1021.23 1021.15 1021.07 1020.97 1020.87 1020.76 1020.64 1020.52 1020.41
1014.51 1015.17 1015.87 1016.56 1017.21 1017.79 1018.30 1018.73 1019.09 1019.42 1019.73 1020.04 1020.36 1020.68 1020.99 1021.27 1021.50 1021.68 1021.79 1021.85 1021.88 1021.88 1021.87 1021.86 1021.86 1021.85 1021.84 1021.82 1021.77 1021.71 1021.63 1021.54 1021.45 1021.36 1021.26 1021.17 1021.07 1020.97 1020.85 1020.73 1020.61 1020.49 1020.39
1014.12 1014.80 1015.51 1016.21 1016.88 1017.49 1018.02 1018.47 1018.87 1019.22 1019.57 1019.93 1020.29 1020.66 1021.03 1021.36 1021.63 1021.84 1021.97 1022.04 1022.06 1022.03 1021.99 1021.95 1021.90 1021.86 1021.82 1021.77 1021.72 1021.65 1021.58 1021.50 1021.42 1021.33 1021.24 1021.14 1021.04 1020.92 1020.79 1020.65 1020.52 1020.40 1020.29
1013.65 1014.34 1015.05 1015.76 1016.44 1017.05 1017.60 1018.07 1018.50 1018.90 1019.29 1019.70 1020.13 1020.56 1020.97 1021.35 1021.66 1021.89 1022.03 1022.09 1022.09 1022.04 1021.97 1021.88 1021.80 1021.73 1021.66 1021.60 1021.54 1021.48 1021.42 1021.36 1021.30 1021.23 1021.15 1021.06 1020.95 1020.83 1020.69 1020.54 1020.39 1020.25 1020.12
1013.11 1013.80 1014.51 1015.22 1015.89 1016.50 1017.06 1017.55 1018.01 1018.46 1018.91 1019.38 1019.87 1020.35 1020.81 1021.22 1021.56 1021.80 1021.94 1022.00 1021.97 1021.90 1021.79 1021.67 1021.56 1021.46 1021.38 1021.31 1021.25 1021.20 1021.15 1021.11 1021.07 1021.03 1020.97 1020.90 1020.81 1020.69 1020.55 1020.40 1020.23 1020.07 1019.91
1012.53 1013.22 1013.93 1014.62 1015.28 1015.89 1016.45 1016.97 1017.46 1017.95 1018.45 1018.98 1019.52 1020.05 1020.54 1020.98 1021.33 1021.57 1021.71 1021.75 1021.71 1021.61 1021.49 1021.35 1021.22 1021.10 1021.01 1020.93 1020.87 1020.82 1020.79 1020.77 1020.76 1020.74 1020.72 1020.68 1020.61 1020.51 1020.38 1020.23 1020.05 1019.87 1019.68
1011.95 1012.65 1013.35 1014.04 1014.68 1015.28 1015.84 1016.37 1016.88 1017.41 1017.95 1018.51 1019.09 1019.65 1020.16 1020.61 1020.96 1021.20 1021.33 1021.36 1021.31 1021.21 1021.08 1020.94 1020.80 1020.68 1020.58 1020.49 1020.43 1020.38 1020.35 1020.34 1020.35 1020.37 1020.38 1020.37 1020.34 1020.28 1020.17 1020.03 1019.85 1019.65 1019.44
1011.41 1012.13 1012.82 1013.49 1014.12 1014.71 1015.26 1015.79 1016.32 1016.86 1017.42 1018.00 1018.59 1019.16 1019.67 1020.11 1020.45 1020.68 1020.81 1020.84 1020.81 1020.72 1020.60 1020.48 1020.36 1020.24 1020.13 1020.04 1019.97 1019.91 1019.87 1019.86 1019.88 1019.92 1019.96 1019.99 1020.01 1019.98 1019.91 1019.78 1019.61 1019.40 1019.17
1010.92 1011.65 1012.36 1013.02 1013.63 1014.20 1014.74 1015.26 1015.78 1016.32 1016.88 1017.46 1018.03 1018.58 1019.08 1019.50 1019.83 1020.05 1020.18 1020.23 1020.22 1020.16 1020.09 1019.99 1019.90 1019.80 1019.70 1019.60 1019.51 1019.43 1019.37 1019.35 1019.37 1019.41 1019.47 1019.54 1019.59 1019.60 1019.57 1019.47 1019.31 1019.10 1018.85
1010.48 1011.23 1011.93 1012.59 1013.20 1013.75 1014.27 1014.78 1015.28 1015.80 1016.34 1016.88 1017.43 1017.94 1018.41 1018.80 1019.11 1019.33 1019.47 1019.55 1019.58 1019.57 1019.55 1019.50 1019.45 1019.38 1019.29 1019.18 1019.07 1018.97 1018.88 1018.84 1018.83 1018.87 1018.94 1019.02 1019.10 1019.14 1019.13 1019.05 1018.91 1018.70 1018.45
1010.04 1010.81 1011.52 1012.18 1012.78 1013.32 1013.83 1014.31 1014.79 1015.27 1015.77 1016.28 1016.78 1017.26 1017.69 1018.05 1018.34 1018.57 1018.73 1018.84 1018.92 1018.97 1019.01 1019.03 1019.02 1018.98 1018.91 1018.80 1018.68 1018.54 1018.42 1018.34 1018.30 1018.32 1018.37 1018.45 1018.53 1018.59 1018.59 1018.52 1018.38 1018.18 1017.93
1009.56 1010.34 1011.07 1011.73 1012.33 1012.87 1013.37 1013.83 1014.28 1014.74 1015.20 1015.67 1016.13 1016.56 1016.96 1017.30 1017.58 1017.81 1018.00 1018.15 1018.29 1018.40 1018.51 1018.58 1018.63 1018.62 1018.57 1018.47 1018.33 1018.17 1018.02 1017.89 1017.81 1017.79 1017.81 1017.86 1017.92 1017.96 1017.95 1017.88 1017.73 1017.53 1017.28
1009.00 1009.80 1010.55 1011.22 1011.83 1012.37 1012.87 1013.32 1013.76 1014.20 1014.64 1015.07 1015.50 1015.91 1016.28 1016.61 1016.89 1017.14 1017.35 1017.55 1017.73 1017.90 1018.06 1018.19 1018.28 1018.31 1018.28 1018.19 1018.04 1017.86 1017.68 1017.51 1017.38 1017.31 1017.28 1017.28 1017.29 1017.29 1017.24 1017.14 1016.98 1016.77 1016.52
1008.38 1009.19 1009.95 1010.65 1011.28 1011.84 1012.34 1012.81 1013.25 1013.68 1014.11 1014.53 1014.95 1015.35 1015.72 1016.05 1016.35 1016.61 1016.85 1017.08 1017.30 1017.52 1017.72 1017.88 1018.01 1018.07 1018.05 1017.97 1017.82 1017.63 1017.42 1017.22 1017.04 1016.91 1016.81 1016.75 1016.69 1016.62 1016.52 1016.37 1016.18 1015.94 1015.69
1007.73 1008.56 1009.34 1010.07 1010.72 1011.31 1011.85 1012.33 1012.79 1013.24 1013.68 1014.11 1014.54 1014.95 1015.33 1015.68 1016.00 1016.29 1016.55 1016.81 1017.05 1017.28 1017.50 1017.69 1017.83 1017.90 1017.91 1017.83 1017.69 1017.49 1017.27 1017.04 1016.82 1016.62 1016.46 1016.31 1016.17 1016.03 1015.85 1015.64 1015.40 1015.14 1014.88
1007.12 1007.97 1008.79 1009.55 1010.25 1010.88 1011.44 1011.97 1012.45 1012.93 1013.40 1013.86 1014.31 1014.75 1015.17 1015.55 1015.89 1016.20 1016.49 1016.75 1017.00 1017.23 1017.45 1017.64 1017.77 1017.85 1017.86 1017.79 1017.66 1017.47 1017.23 1016.98 1016.72 1016.48 1016.24 1016.02 1015.79 1015.56 1015.30 1015.03 1014.74 1014.45 1014.17
1006.64 1007.53 1008.38 1009.19 1009.93 1010.61 1011.22 1011.78 1012.31 1012.82 1013.32 1013.82 1014.32 1014.80 1015.25 1015.67 1016.04 1016.37 1016.67 1016.93 1017.17 1017.38 1017.58 1017.74 1017.86 1017.93 1017.94 1017.87 1017.74 1017.56 1017.32 1017.06 1016.77 1016.48 1016.19 1015.89 1015.59 1015.28 1014.95 1014.61 1014.27 1013.94 1013.65
1006.37 1007.30 1008.21 1009.07 1009.86 1010.58 1011.23 1011.83 1012.40 1012.94 1013.49 1014.03 1014.57 1015.09 1015.58 1016.03 1016.43 1016.78 1017.08 1017.33 1017.55 1017.73 1017.89 1018.01 1018.11 1018.15 1018.14 1018.08 1017.95 1017.77 1017.54 1017.27 1016.97 1016.65 1016.31 1015.96 1015.60 1015.22 1014.83 1014.43 1014.05 1013.69 1013.38
1006.35 1007.34 1008.31 1009.22 1010.05 1010.81 1011.50 1012.13 1012.73 1013.31 1013.89 1014.47 1015.04 1015.60 1016.13 1016.61 1017.04 1017.39 1017.69 1017.92 1018.11 1018.25 1018.37 1018.45 1018.50 1018.52 1018.49 1018.42 1018.29 1018.12 1017.89 1017.62 1017.31 1016.97 1016.61 1016.22 1015.81 1015.39 1014.96 1014.53 1014.11 1013.73 1013.39
1006.58 1007.64 1008.66 1009.61 1010.49 1011.28 1012.00 1012.66 1013.28 1013.88 1014.49 1015.09 1015.70 1016.29 1016.85 1017.35 1017.79 1018.16 1018.44 1018.66 1018.81 1018.92 1018.99 1019.02 1019.03 1019.01 1018.97 1018.88 1018.75 1018.58 1018.35 1018.09 1017.78 1017.44 1017.06 1016.65 1016.22 1015.77 1015.32 1014.86 1014.42 1014.01 1013.64
1007.00 1008.12 1009.19 1010.19 1011.10 1011.92 1012.65 1013.33 1013.97 1014.59 1015.22 1015.85 1016.48 1017.09 1017.67 1018.20 1018.65 1019.01 1019.29 1019.49 1019.61 1019.68 1019.71 1019.70 1019.67 1019.62 1019.55 1019.44 1019.31 1019.13 1018.91 1018.65 1018.34 1018.00 1017.62 1017.21 1016.77 1016.31 1015.85 1015.37 1014.91 1014.46 1014.05
Thickness
5690 5689 5687 5686 5685 5684 5682 5680 5678 5676 5674 5672 5669 5667 5663 5660 5657 5655 5652 5649 5645 5642 5638 5635 5630 5626 5622 5617 5613 5608 5604 5600 5596 5592 5588 5584 5581 5578 5575 5572 5570 5568 5566
5686 5684 5683 5681 5680 5679 5677 5675 5673 5671 5669 5667 5664 5661 5658 5655 5651 5648 5645 5642 5638 5635 5631 5627 5623 5619 5615 5610 5605 5601 5596 5592 5588 5584 5580 5577 5573 5570 5567 5565 5562 5560 5558
5682 5681 5679 5677 5676 5675 5673 5671 5668 5666 5663 5661 5658 5655 5652 5649 5645 5642 5639 5635 5631 5628 5624 5620 5616 5611 5607 5603 5598 5593 5589 5585 5580 5576 5573 5569 5566 5563 5560 5557 5555 5553 5550
5679 5677 5675 5674 5673 5671 5669 5666 5663 5660 5657 5654 5652 5649 5646 5642 5639 5635 5632 5628 5625 5621 5616 5612 5608 5604 5600 5595 5591 5586 5582 5577 5573 5569 5566 5562 5559 5556 5553 5550 5548 5545 5543
5676 5674 5672 5671 5669 5667 5664 5662 5658 5655 5651 5648 5645 5642 5639 5636 5633 5629 5625 5622 5618 5614 5610 5605 5601 5596 5592 5588 5584 5579 5575 5571 5566 5562 5559 5555 5552 5549 5546 5543 5540 5538 5536
5673 5671 5669 5667 5665 5663 5660 5657 5653 5650 5646 5642 5639 5635 5631 5629 5626 5623 5619 5616 5612 5607 5603 5598 5594 5589 5585 5581 5576 5572 5568 5564 5560 5556 5552 5548 5545 5542 5539 5536 5533 5531 5528
5671 5669 5667 5664 5662 5660 5656 5653 5648 5644 5639 5636 5630 5625 5623 5621 5619 5616 5613 5609 5605 5601 5596 5592 5587 5583 5578 5574 5569 5565 5561 5557 5553 5549 5545 5542 5538 5535 5532 5529 5526 5523 5521
5669 5667 5665 5662 5659 5656 5652 5649 5645 5639 5634 5631 5625 5618 5614 5611 5611 5610 5606 5603 5599 5595 5590 5586 5581 5577 5572 5568 5563 5558 5554 5550 5546 5542 5538 5534 5531 5528 5524 5521 5518 5515 5513
5668 5666 5663 5660 5657 5654 5650 5646 5642 5637 5630 5625 5623 5617 5608 5605 5603 5602 5600 5597 5593 5589 5585 5580 5576 5571 5566 5562 5557 5552 5547 5543 5539 5535 5531 5527 5524 5520 5517 5514 5510 5507 5504
5666 5664 5661 5658 5655 5651 5648 5643 5639 5634 5629 5621 5617 5615 5611 5606 5599 5595 5592 5590 5587 5583 5579 5575 5570 5566 5561 5556 5551 5546 5541 5536 5532 5528 5524 5520 5516 5512 5508 5504 5501 5497 5494
5663 5661 5659 5655 5652 5649 5645 5641 5635 5631 5626 5621 5615 5610 5605 5599 5595 5590 5586 5583 5579 5578 5574 5570 5565 5560 5556 5551 5546 5540 5535 5530 5525 5520 5516 5511 5507 5503 5499 5494 5490 5486 5482
5660 5659 5656 5653 5650 5647 5643 5638 5633 5628 5623 5618 5613 5608 5603 5597 5592 5586 5581 5576 5573 5571 5569 5564 5560 5555 5550 5545 5540 5534 5529 5523 5518 5513 5508 5502 5498 5493 5488 5483 5478 5474 5470
5659 5658 5655 5652 5649 5645 5640 5635 5630 5625 5620 5615 5610 5606 5602 5598 5593 5586 5579 5572 5567 5564 5561 5558 5555 5550 5545 5539 5534 5528 5522 5517 5511 5505 5499 5493 5488 5482 5476 5470 5465 5461 5456
5661 5657 5653 5650 5646 5642 5637 5632 5627 5622 5617 5612 5608 5603 5598 5594 5589 5585 5578 5569 5562 5556 5553 5551 5548 5544 5539 5534 5528 5522 5516 5510 5504 5497 5491 5484 5477 5471 5464 5458 5452 5447 5443
5657 5653 5649 5646 5642 5638 5634 5629 5624 5619 5614 5609 5605 5599 5595 5590 5585 5580 5575 5568 5560 5552 5548 5546 5541 5538 5533 5527 5521 5515 5509 5502 5495 5488 5481 5474 5466 5459 5452 5445 5439 5434 5430
5653 5649 5645 5642 5638 5634 5630 5626 5621 5616 5611 5606 5601 5595 5591 5585 5580 5575 5569 5563 5557 5550 5544 5540 5535 5530 5525 5519 5513 5507 5501 5493 5486 5479 5472 5464 5456 5448 5441 5434 5428 5423 5418
5650 5647 5643 5638 5634 5630 5626 5622 5618 5613 5608 5602 5597 5592 5587 5581 5575 5569 5563 5557 5551 5544 5538 5534 5527 5522 5516 5510 5504 5498 5491 5484 5477 5469 5461 5453 5445 5437 5430 5423 5417 5411 5406
5647 5644 5639 5635 5631 5627 5623 5619 5614 5609 5604 5599 5593 5588 5582 5576 5570 5563 5557 5551 5545 5539 5532 5526 5519 5512 5507 5501 5495 5488 5481 5474 5466 5458 5450 5441 5433 5426 5418 5411 5405 5399 5393
5643 5639 5635 5632 5628 5623 5619 5615 5611 5605 5600 5595 5589 5584 5578 5571 5564 5558 5551 5545 5539 5532 5525 5518 5511 5503 5497 5491 5484 5478 5471 5463 5455 5447 5438 5429 5421 5414 5406 5399 5393 5386 5380
5639 5636 5632 5628 5624 5619 5615 5610 5605 5600 5594 5589 5584 5578 5572 5566 5560 5553 5546 5539 5532 5524 5516 5509 5502 5494 5487 5481 5473 5466 5459 5451 5443 5435 5425 5417 5409 5401 5394 5387 5380 5374 5367
5635 5631 5627 5622 5618 5613 5610 5605 5600 5594 5588 5582 5576 5571 5566 5561 5555 5548 5541 5533 5525 5517 5508 5501 5493 5485 5478 5470 5463 5455 5447 5438 5431 5421 5412 5404 5397 5389 5381 5374 5367 5360 5354
5628 5624 5621 5616 5612 5608 5604 5600 5595 5588 5582 5575 5569 5563 5558 5552 5547 5540 5534 5527 5520 5511 5502 5494 5486 5477 5470 5462 5453 5444 5433 5425 5418 5412 5400 5393 5385 5377 5369 5362 5355 5349 5343
5621 5617 5614 5610 5606 5602 5598 5593 5588 5582 5575 5569 5562 5556 5549 5544 5537 5531 5524 5517 5510 5504 5497 5488 5478 5470 5462 5454 5444 5433 5422 5411 5403 5397 5387 5380 5372 5364 5357 5350 5343 5338 5332
5614 5610 5607 5603 5599 5595 5590 5586 5580 5573 5567 5560 5555 5549 5542 5535 5528 5522 5514 5506 5499 5492 5486 5479 5471 5462 5453 5444 5434 5422 5411 5400 5390 5383 5374 5366 5360 5353 5347 5339 5332 5326 5320
5605 5602 5599 5595 5591 5586 5582 5578 5572 5564 5557 5551 5545 5540 5534 5527 5521 5514 5506 5497 5488 5481 5475 5468 5460 5451 5441 5432 5422 5409 5397 5387 5378 5370 5361 5352 5347 5341 5336 5330 5322 5315 5309
5595 5592 5588 5585 5582 5578 5573 5569 5563 5556 5548 5540 5534 5529 5525 5519 5512 5505 5497 5489 5479 5471 5463 5455 5447 5437 5428 5418 5408 5398 5386 5375 5365 5357 5350 5340 5334 5327 5324 5321 5313 5306 5300